Theta_e
306 303 304 306 307 307 307 308 309 309 308 308 306 305 304 304 303 300 294 294 297 297 297 297 297 298 298
301 299 300 302 304 304 304 304 304 304 304 303 302 301 301 299 295 292 292 295 296 295 295 295 295 296 296
299 298 298 299 300 300 300 301 300 299 298 298 298 297 294 293 293 293 293 295 294 293 293 293 293 292 293
299 295 296 296 297 296 295 296 296 296 295 294 293 293 294 293 292 292 293 294 293 292 292 291 291 291 291
297 293 292 291 293 293 292 291 291 291 290 290 290 291 291 291 290 289 290 290 290 290 290 290 290 290 290
297 296 294 293 292 291 289 289 290 290 291 289 289 288 288 287 287 286 286 285 287 288 288 289 289 289 289
299 296 294 293 292 290 290 291 290 290 290 289 289 287 286 286 285 285 285 285 287 288 288 288 288 289 289
298 297 298 295 294 293 293 291 289 286 286 288 285 286 285 284 285 284 284 284 284 286 287 288 288 288 287
298 299 298 296 295 295 291 288 286 285 284 286 285 286 286 286 284 284 284 285 285 287 287 287 287 287 286
291 291 290 290 290 290 289 289 287 287 285 286 285 285 289 285 284 284 284 284 284 284 283 283 284 284 284
286 286 285 285 285 286 285 286 286 287 285 285 285 285 285 286 285 285 284 284 284 283 283 283 283 283 283
286 286 285 285 284 285 285 285 285 285 285 284 284 284 285 285 285 284 284 284 283 283 283 282 282 282 282
286 285 285 285 285 285 285 285 285 285 284 284 284 284 283 284 285 284 284 284 283 283 282 282 281 281 280
285 285 285 285 285 284 284 284 284 284 284 284 283 283 283 283 283 284 284 284 284 283 282 281 281 280 280
285 285 285 285 284 284 284 284 284 286 285 284 282 282 282 282 282 283 283 283 283 282 281 281 280 280 280
285 284 284 284 284 284 284 284 285 285 285 284 283 283 282 282 282 282 282 283 282 282 281 280 280 280 280
285 284 284 284 284 285 285 284 284 284 284 283 282 281 282 284 283 282 281 281 281 281 280 280 280 280 280
Wind_Speed
6 9 10 12 14 14 16 18 21 20 20 19 17 16 16 15 14 15 15 15 12 11 11 12 13 16 15
10 9 10 13 15 16 17 17 19 20 20 18 16 15 14 14 13 15 15 13 11 10 12 11 12 14 14
12 15 9 15 16 16 17 18 18 16 13 13 13 12 9 9 13 15 14 12 12 11 11 12 12 12 12
10 9 11 14 20 20 15 16 16 15 14 12 10 12 11 10 11 10 12 13 12 12 12 11 13 12 13
9 5 8 10 18 19 13 15 12 12 10 10 11 10 12 16 13 13 15 14 12 12 12 13 13 14 15
11 6 11 12 16 19 18 9 4 10 11 6 6 9 9 12 14 13 13 14 13 11 12 14 14 14 15
12 8 12 17 19 16 16 11 5 7 9 4 8 10 10 11 11 10 10 11 11 12 15 16 17 16 15
5 9 4 11 14 16 16 11 8 6 7 4 4 4 5 5 6 8 10 11 13 13 12 11 11 12 16
13 11 10 10 12 15 15 12 4 4 8 2 2 1 3 3 4 3 4 5 7 7 8 10 13 16 20
16 17 15 13 11 7 13 7 5 3 5 4 3 1 2 2 2 4 6 9 11 14 15 15 18 17 18
15 14 13 12 11 10 8 5 4 3 7 5 3 1 0 3 5 7 9 8 11 13 14 16 17 15 15
11 10 9 9 9 8 6 5 4 3 7 5 2 3 2 2 5 6 10 12 13 13 12 13 16 19 20
8 7 6 6 5 4 3 2 1 1 3 5 6 6 6 5 6 9 10 9 14 14 12 14 17 19 23
6 5 4 2 1 0 1 3 4 5 6 7 8 9 8 10 12 17 15 11 14 16 16 18 20 22 24
4 2 1 2 3 4 5 6 5 6 6 8 10 12 13 14 15 18 18 21 19 19 18 22 24 23 24
4 4 5 6 6 8 8 8 8 9 9 8 8 9 11 15 17 22 19 19 20 19 21 23 27 25 27
6 7 8 8 8 6 7 8 10 11 11 9 8 9 7 8 15 16 18 18 21 24 22 23 26 30 30
Wind_Direction
185 214 210 213 214 214 209 209 207 212 211 207 202 203 210 220 241 248 251 252 246 243 251 251 254 259 261
192 195 203 207 212 211 204 205 207 210 213 203 200 203 221 230 244 253 253 250 239 245 249 254 256 260 261
185 193 192 196 194 196 192 190 192 192 198 203 210 212 217 231 249 257 254 240 237 251 257 255 254 258 259
178 171 178 189 194 185 178 185 186 191 193 192 194 205 226 235 242 247 244 236 239 248 251 249 256 257 262
175 183 153 168 188 189 170 181 181 190 190 206 222 234 236 232 236 243 245 249 250 254 254 255 251 257 268
186 177 181 185 186 172 158 144 167 203 203 211 231 233 234 242 245 251 256 258 253 252 257 255 258 270 265
206 189 182 195 180 168 163 150 136 156 186 211 231 244 245 248 250 248 249 251 256 260 261 266 267 266 260
156 134 125 166 174 177 168 147 124 153 167 199 204 214 232 245 252 258 266 266 262 264 268 265 253 261 277
93 88 97 151 164 160 150 145 139 162 187 180 174 207 238 243 254 248 221 275 266 257 260 268 277 282 282
94 97 103 115 134 155 157 149 123 130 194 169 174 189 191 212 210 266 286 291 285 281 276 276 281 281 278
90 91 96 103 110 126 140 141 130 104 175 173 170 184 301 297 288 289 293 292 291 283 283 283 283 275 278
89 86 90 94 102 109 111 112 110 129 169 189 185 202 220 278 271 287 300 296 292 289 286 284 286 285 279
78 85 94 104 104 95 93 94 85 209 228 245 254 253 247 243 277 279 304 299 290 281 283 284 286 288 288
91 99 104 112 136 291 324 323 314 297 287 275 263 258 258 259 266 278 287 288 290 289 288 285 286 283 280
60 48 0 329 317 313 309 309 296 290 288 292 275 269 265 269 274 273 282 283 282 284 288 287 285 286 283
355 338 323 314 307 303 297 288 285 289 288 287 286 288 283 285 271 261 272 275 285 288 288 284 288 291 288
343 330 320 314 313 308 302 298 295 293 292 290 276 264 275 280 298 255 261 278 289 292 288 285 286 287 289